Content
SEND FEEDBACK

Daily
Averages
Monthly
Summary
United States of America

ST. LOUIS, MISSOURI


Home > North America > United States > Missouri
Elevation: 535 feet     Latitude: 38 45N     Longitude: 090 22W

WEATHER
 
SELECT A DAY
Number of Records: 199,017;   Date Range: 1/1/95 - 10/1/14
 
SHARE

PRINT THIS DATA

[ ← Previous Day ]
WEATHER ALMANAC - FEBRUARY 8, 2014
[ Next Day → ]
[ °C ]   °F
Weather ElementAverageHighLow
Temperature22.5 °F28.9 °F (2:54 pm)15.8 °F (3:09 am)
Dewpoint14.1 °F21 °F (9:54 pm)6.8 °F (1:10 am)
Humidity70.7 %86 % (4:03 am)58 % (2:54 pm)
Barometer30.23 in30.32 in (1:54 am)30.14 in (3:28 pm)
Wind Speed2.6 mph6.9 mph (7:54 pm)
Weather ElementAverage
Visibility8.4 mi
Wind DirectionENE (58.6 °)

Weather ElementTotal
Precipitation---
Heating Degree Days42.7 (Base 65)
Averaged from 29 records on February 8, 2014
WEATHER CONDITIONS BREAKOUT
WIND DIRECTION BREAKOUT
WEATHER BY HOUR - FEBRUARY 8, 2014
[ °C ]   °F
Local TimeTemperatureDewpointHumidityBarometerVisibilityWind DirectionWind SpeedGust SpeedPrecipitationEventsConditions
1:10 AM17.6 °F6.8 °F63 %30.28 in10.0 miEast (80°)5.8 mphOvercast
1:51 AM17.6 °F6.8 °F63 %30.27 in6.0 miEast (80°)5.8 mph0.00 inSnowLight Snow
1:54 AM17.1 °F7.0 °F65 %30.32 in6.0 miEast (80°)5.8 mph0.00 inSnowLight Snow
2:54 AM17.1 °F10.0 °F74 %30.32 in2.5 miEast (90°)3.5 mph0.00 inSnowLight Snow
3:09 AM15.8 °F10.4 °F79 %30.27 in2.0 miEast (90°)4.6 mph0.00 inSnowLight Snow
3:17 AM15.8 °F10.4 °F79 %30.27 in1.5 miEast (90°)4.6 mph0.00 inSnowLight Snow
3:54 AM16.0 °F12.0 °F84 %30.30 in2.5 miCalm0.00 inSnowLight Snow
4:03 AM15.8 °F12.2 °F86 %30.26 in4.0 miEast (90°)3.5 mph0.00 inSnowLight Snow
4:54 AM17.1 °F10.9 °F77 %30.29 in10.0 miESE (120°)3.5 mph0.00 inOvercast
5:54 AM17.1 °F10.9 °F77 %30.29 in10.0 miCalmOvercast
6:54 AM17.1 °F10.9 °F77 %30.29 in10.0 miCalmOvercast
7:54 AM18.0 °F12.0 °F78 %30.28 in10.0 miCalmOvercast
8:54 AM19.0 °F12.9 °F77 %30.29 in10.0 miCalmOvercast
9:54 AM21.0 °F12.9 °F71 %30.27 in10.0 miSE (130°)3.5 mphOvercast
10:54 AM23.0 °F12.9 °F65 %30.25 in10.0 miSE (140°)3.5 mphOvercast
11:54 AM24.1 °F14.0 °F65 %30.22 in10.0 miSSE (150°)4.6 mphOvercast
12:54 PM26.1 °F15.1 °F63 %30.19 in10.0 miSSW (200°)3.5 mphOvercast
1:54 PM28.0 °F16.0 °F61 %30.17 in10.0 miCalmOvercast
2:54 PM28.9 °F16.0 °F58 %30.16 in10.0 miCalmOvercast
3:28 PM28.4 °F15.8 °F59 %30.14 in10.0 miCalmOvercast
3:54 PM28.9 °F17.1 °F61 %30.17 in10.0 miCalmOvercast
4:54 PM28.0 °F19.0 °F69 %30.15 in10.0 miEast (90°)4.6 mphOvercast
5:54 PM28.9 °F18.0 °F64 %30.16 in10.0 miNE (50°)4.6 mphOvercast
6:54 PM28.0 °F19.0 °F69 %30.18 in10.0 miEast (90°)3.5 mphOvercast
7:54 PM28.0 °F19.0 °F69 %30.17 in10.0 miENE (60°)6.9 mphOvercast
8:54 PM27.0 °F19.9 °F75 %30.17 in10.0 miENE (70°)4.6 mphOvercast
9:54 PM28.0 °F21.0 °F75 %30.18 in10.0 miCalmOvercast
10:54 PM28.0 °F19.9 °F72 %30.19 in10.0 miCalmOvercast
11:54 PM28.0 °F21.0 °F75 %30.19 in10.0 miCalmOvercast
Hourly data recorded from KSUS, located miles away from St. Louis, Missouri







STORIES FROM OUR PARTNERS